Volver al catálogo

CZ-3C DEB

LostGTO
NORAD 40204·DEBRIS·🇨🇳 China

Lanzado Feb 24, 2012 desde Xichang Satellite Launch Center

Loading…

TLE

ObsoletoSource: Space-Track

Época: Apr 18, 2026, 05:30 UTC

1 40204U 12008P   26108.22952091 -.00000125  00000-0  95609-3 0  9999
2 40204  20.7685  34.3767 7096214 185.4619 157.5216  2.27002446 95359

Sigue CZ-3C DEB en tiempo real con AllMySat

Download on the App Store